Location: Gleizolles
(44.4833°N, 6.7667°E)
Time: 00:52:44
(UTC+00:00)

A-11 Canister half - Visible Passes

Search period start: 13 June 2024 00:00
Search period end: 23 June 2024 00:00
Orbit: 1515 x 1685 km, 47.2° (Epoch: 12 June)

Date Brightness Start Highest point End Pass type
(mag) Time Alt. Az. Time Alt. Az. Time Alt. Az.
13 Jun 8.9 01:00:40 10° WNW 01:10:19 77° SSW 01:19:37 10° ESE visible
13 Jun 9.6 03:06:18 10° WNW 03:14:11 31° SW 03:21:54 10° S visible
13 Jun 9.1 20:26:38 10° WSW 20:36:42 84° SSE 20:46:24 10° ENE visible
13 Jun 9.2 22:32:10 10° W 22:42:05 76° N 22:51:37 10° E visible
14 Jun 8.9 00:37:38 10° WNW 00:47:20 79° SSW 00:56:41 10° ESE visible
14 Jun 9.5 02:43:12 10° WNW 02:51:17 33° SW 02:59:12 10° SSE visible
14 Jun 9.1 20:03:38 10° WSW 20:13:41 82° SSE 20:23:25 10° ENE visible
14 Jun 9.2 22:09:06 10° W 22:19:03 76° N 22:28:38 10° E visible
15 Jun 8.9 00:14:36 10° WNW 00:24:22 82° SSW 00:33:45 10° ESE visible
15 Jun 9.4 02:20:06 10° WNW 02:28:24 35° SW 02:36:29 10° SSE visible
15 Jun 9.1 19:40:37 10° WSW 19:50:41 80° SSE 20:00:26 10° ENE visible
15 Jun 9.2 21:46:03 10° W 21:56:01 76° N 22:05:37 10° E visible
15 Jun 8.9 23:51:34 10° WNW 00:01:23 84° SSW 00:10:48 10° ESE visible
16 Jun 9.3 01:57:02 10° WNW 02:05:30 37° SW 02:13:45 10° SSE visible
16 Jun 9.2 21:22:58 10° W 21:32:58 76° N 21:42:37 10° E visible
16 Jun 8.9 23:28:32 10° WNW 23:38:23 86° SSW 23:47:50 10° ESE visible
17 Jun 9.3 01:33:57 10° WNW 01:42:36 40° SW 01:51:00 10° SSE visible
17 Jun 9.3 20:59:54 10° W 21:09:56 77° N 21:19:37 10° E visible
17 Jun 9.0 23:05:30 10° WNW 23:15:22 88° SSW 23:24:52 10° ESE visible
18 Jun 9.2 01:10:53 10° WNW 01:19:41 42° SW 01:28:14 10° SSE visible
18 Jun 9.3 20:36:49 10° W 20:46:54 77° N 20:56:36 10° E visible
18 Jun 9.0 22:42:27 10° WNW 22:52:23 90° NNE 23:01:54 10° ESE visible
19 Jun 9.2 00:47:49 10° WNW 00:56:46 44° SW 01:05:27 10° SSE visible
19 Jun 10.3 02:57:22 10° WSW 02:59:37 11° WSW 03:01:51 10° SW visible
19 Jun 9.3 20:13:46 10° W 20:23:51 78° N 20:33:37 10° E visible
19 Jun 9.0 22:19:24 10° WNW 22:29:22 88° NNE 22:38:55 10° ESE visible
20 Jun 9.2 00:24:45 10° WNW 00:33:51 47° SW 00:40:33 18° SSE visible
20 Jun 10.2 02:33:21 10° W 02:36:46 12° WSW 02:38:26 12° SW visible
20 Jun 9.3 19:50:41 10° W 20:00:49 79° N 20:10:36 10° E visible
20 Jun 9.1 21:56:22 10° WNW 22:06:21 86° NNE 22:15:57 10° ESE visible
21 Jun 9.1 00:01:41 10° WNW 00:10:55 50° SW 00:16:13 26° SSE visible
21 Jun 10.2 02:09:40 10° W 02:13:56 14° WSW 02:14:14 14° SW visible
21 Jun 9.1 21:33:18 10° WNW 21:43:20 84° NNE 21:52:58 10° ESE visible
21 Jun 9.1 23:38:38 10° WNW 23:47:59 52° SW 23:52:48 29° SSE visible
22 Jun 10.2 01:46:09 10° W 01:50:53 15° WSW 01:50:53 15° WSW visible
22 Jun 9.1 21:10:15 10° WNW 21:20:18 83° NNE 21:29:59 10° ESE visible
22 Jun 9.1 23:15:36 10° WNW 23:25:03 55° SW 23:29:48 30° SSE visible
